User: anonymous   Login
Location: Hickory_Viewmont
(35.7830°N, 81.3170°W)
Time: 05:54:08
(UTC-04:00)
Language:

Okean-O - Orbit

View from above orbital plane
View from above orbital plane
View from above satellite
View from above satellite

Ground track
Ground track

The orbit data is extracted from the following two-line orbital elements,

1 25860U 99039A   16121.47645511  .00000239  00000-0  41938-4 0  9998
2 25860  98.1398  95.9515 0001692  71.1598 288.9795 14.76341327902933
Epoch (UTC): 30 April 2016 11:26:05
Eccentricity: 0.0001692
inclination: 98.1398°
perigee height: 640 km
apogee height: 642 km
right ascension of ascending node: 95.9515°
argument of perigee: 71.1598°
revolutions per day: 14.76341327
mean anomaly at epoch: 288.9795°
orbit number at epoch: 90293

The dashed part of the orbit path shows where the satellite is in the earth's shadow,  

DLR